[[{"header":{"parameterUnit":"m.s-1","parameterCategory":2,"la1":30.2991,"la2":30.254,"lo1":-89.0895,"lo2":-89.0444,"dy":0.0017,"dx":0.0017,"nx":28,"ny":28,"refTime":"2023-10-19T21:00:00:Z","depth":"0","parameterNumber":2,"parameterNumberName":"U-component_of_CURRENTS"},"data":[0,0,0,0,0,0,0,0,0,0,0,0,0,0,0,0,0,0,0,0,0,0,0,0,0,0,0,0,0,0,0,0,0,0,0,0,0,0,0,0,0,0,0,0,0,0,0,0,0,0,0,0,0,0,0,0,0,0,-0.2242,-0.2244,0,-0.2329,-0.233,-0.233,-0.2224,-0.2221,-0.2218,-0.2215,-0.2143,-0.2143,-0.2144,0,0,0,0,0,0,0,0,0,0,0,0,0,-0.2029,-0.2032,-0.2242,-0.2244,-0.2246,-0.2329,-0.233,-0.233,-0.2225,-0.2221,-0.2218,-0.2214,-0.2142,-0.2143,-0.2144,0,0,0,0,0,0,0,0,0,0,0,0,0,-0.211,-0.2033,-0.2242,-0.2211,-0.2209,-0.2329,-0.233,-0.233,-0.2226,-0.2221,-0.2217,-0.2212,-0.2142,-0.2143,-0.2145,-0.2243,0,0,-0.2149,-0.2149,0,0,0,0,0,0,0,0,-0.2106,-0.2117,-0.2213,-0.2213,-0.2212,-0.227,-0.2228,-0.2296,-0.2227,-0.2209,-0.2215,-0.221,-0.218,-0.2178,-0.2193,-0.224,-0.2237,-0.2149,-0.2149,-0.215,-0.215,0,0,0,0,0,0,0,-0.21,-0.2113,-0.2267,-0.2216,-0.2216,-0.2209,-0.2213,-0.2241,-0.2209,-0.2211,-0.2206,-0.2232,-0.2176,-0.2192,-0.219,-0.2236,-0.2149,-0.215,-0.2151,-0.2151,-0.2375,-0.238,0,0,0,0,0,0,-0.2112,-0.2108,-0.2264,-0.227,-0.2157,-0.2217,-0.2222,-0.2248,-0.2212,-0.2206,-0.2236,-0.2227,-0.2192,-0.2189,-0.2187,-0.229,-0.215,-0.2151,-0.2152,-0.237,-0.2376,-0.2381,0,0,0,0,0,0,-0.2108,-0.2126,-0.2261,-0.2198,-0.2216,-0.2226,-0.2256,-0.2252,-0.2264,-0.2235,-0.2222,-0.2251,-0.2188,-0.2185,-0.2234,-0.2286,-0.2152,-0.2153,-0.2363,-0.2371,-0.2379,-0.2504,0,0,0,0,0,0,-0.2101,-0.2123,-0.2143,-0.22,-0.222,-0.2358,-0.2261,-0.2258,-0.2293,-0.2281,-0.2245,-0.2233,-0.2185,-0.2233,-0.2235,-0.2285,-0.2154,-0.2357,-0.2367,-0.2376,-0.2493,-0.2515,-0.2533,0,0,0,0,0,-0.2093,-0.2152,-0.2143,-0.2162,-0.2248,-0.2363,-0.2374,-0.2357,-0.2298,-0.2341,-0.231,-0.2234,-0.2295,-0.2239,-0.224,-0.2292,-0.2352,-0.2364,-0.2375,-0.2484,-0.251,-0.2533,0,0,0,0,0,0,-0.2066,-0.215,-0.214,-0.2217,-0.2294,-0.2348,-0.2386,-0.2381,-0.2394,-0.2366,-0.2303,-0.2295,-0.2359,-0.2334,-0.2273,-0.2394,-0.2312,-0.2325,-0.2394,-0.2419,-0.2439,-0.2358,-0.2155,0,0,0,0,0,-0.2077,-0.2122,-0.2219,-0.227,-0.2322,-0.2356,-0.2394,-0.2401,-0.2428,-0.2426,-0.2406,-0.2395,-0.2419,-0.242,-0.2441,-0.2512,-0.2412,-0.2552,-0.2572,-0.2589,-0.2532,-0.2444,-0.2447,-0.2419,-0.2419,-0.2419,0,0,-0.2073,-0.2126,-0.2148,-0.2266,-0.231,-0.2415,-0.2365,-0.2451,-0.2504,-0.2422,-0.2471,-0.2473,-0.2461,-0.2532,-0.2557,-0.2505,-0.2564,-0.2603,-0.2617,-0.2549,-0.2456,-0.2456,-0.2457,-0.2427,-0.2426,-0.2425,0,0,-0.2119,-0.2151,-0.2223,-0.2311,-0.242,-0.2458,-0.2494,-0.2579,-0.2579,-0.2667,-0.261,-0.263,-0.2689,-0.2665,-0.2665,-0.2818,-0.2682,-0.2857,-0.2873,-0.2792,-0.2789,-0.2786,-0.2716,-0.2705,-0.2854,-0.2854,-0.2854,0,-0.2109,-0.2213,-0.2265,-0.2382,-0.244,-0.2486,-0.2587,-0.2636,-0.2713,-0.2695,-0.2699,-0.2728,-0.2738,-0.2753,-0.2815,-0.2851,-0.2779,-0.2773,-0.2806,-0.2801,-0.2794,-0.2723,-0.2709,-0.2861,-0.2861,-0.286,-0.2859,0,-0.2231,-0.2319,-0.238,-0.2515,-0.2592,-0.2695,-0.2782,-0.2827,-0.2832,-0.2842,-0.2869,-0.2886,-0.2864,-0.2922,-0.2916,-0.2906,-0.2865,-0.2844,-0.2717,-0.2803,-0.2726,-0.2709,-0.2872,-0.2869,-0.2867,-0.2865,0,0,-0.2176,-0.2415,-0.2427,-0.2496,-0.2665,-0.273,-0.2827,-0.2892,-0.2883,-0.2955,-0.2922,-0.3006,-0.2954,-0.2951,-0.295,-0.29,-0.2858,-0.2861,-0.2853,-0.2742,-0.267,-0.2592,-0.2565,-0.2828,-0.2825,-0.2822,-0.2648,0,-0.2242,-0.244,-0.2543,-0.2693,-0.2797,-0.2862,-0.2925,-0.2972,-0.2989,-0.2982,-0.2964,-0.2964,-0.2987,-0.2972,-0.2933,-0.2867,-0.281,-0.2905,-0.2643,-0.2634,-0.2512,-0.2541,-0.2419,-0.2246,-0.2631,-0.2628,-0.2626,0,-0.2305,-0.2431,-0.2593,-0.2738,-0.2781,-0.2865,-0.289,-0.2967,-0.2969,-0.2968,-0.294,-0.2921,-0.2882,-0.2893,-0.2755,-0.281,-0.2739,-0.2687,-0.2678,-0.2521,-0.2521,-0.2219,-0.2199,-0.2199,-0.2598,-0.26,-0.2602,0,-0.2189,-0.2433,-0.2531,-0.2605,-0.2802,-0.2826,-0.2893,-0.2925,-0.2923,-0.2932,-0.2887,-0.2857,-0.2797,-0.2718,-0.2644,-0.2681,-0.2464,-0.2499,-0.2354,-0.2349,-0.2142,-0.2123,-0.2029,-0.2363,-0.2363,-0.2364,-0.2364,0,-0.2199,-0.2274,-0.2484,-0.2553,-0.2603,-0.2757,-0.277,-0.2817,-0.284,-0.2799,-0.2844,-0.2768,-0.2739,-0.2632,-0.2589,-0.2401,-0.2408,-0.2316,-0.2279,-0.2197,-0.2186,-0.2092,-0.2139,-0.2357,-0.2359,-0.236,-0.2361,0,-0.205,-0.2221,-0.2317,-0.2509,-0.2561,-0.2571,-0.2689,-0.2691,-0.2733,-0.2676,-0.2664,-0.2642,-0.2516,-0.247,-0.233,-0.2285,-0.2109,-0.2092,-0.2012,-0.1968,-0.1846,-0.1906,-0.1728,-0.1683,-0.189,-0.1886,-0.1884,0,-0.1997,-0.2041,-0.2205,-0.2247,-0.2338,-0.2414,-0.2462,-0.2591,-0.26,-0.2576,-0.2519,-0.2412,-0.2296,-0.2083,-0.2008,-0.1878,-0.1931,-0.1702,-0.1754,-0.1781,-0.1821,-0.19,-0.1883,-0.1558,-0.1553,-0.1549,-0.1545,0,-0.1847,-0.1876,-0.1953,-0.2031,-0.2105,-0.218,-0.2273,-0.2268,-0.239,-0.2331,-0.223,-0.2134,-0.1971,-0.1781,-0.1655,-0.1583,-0.1672,-0.1609,-0.163,-0.1528,-0.1603,-0.1561,-0.1767,-0.1507,-0.1511,-0.1514,-0.1516,-0.1517,-0.1661,-0.1636,-0.1717,-0.1765,-0.1858,-0.1909,-0.19,-0.1998,-0.1963,-0.1845,-0.1918,-0.1689,-0.1633,-0.1425,-0.1365,-0.1248,-0.1364,-0.1211,-0.1274,-0.1347,-0.1317,-0.1449,-0.1164,-0.1166,-0.1167,-0.1168,-0.117,0,-0.1436,-0.1439,-0.1463,-0.1527,-0.1533,-0.1664,-0.1736,-0.1685,-0.1593,-0.1495,-0.1384,-0.1219,-0.1092,-0.1063,-0.1005,-0.0946,-0.097,-0.0941,-0.1025,-0.1018,-0.1088,-0.1088,-0.0779,-0.0779,-0.0779,-0.0779,-0.0779,-0.0779,-0.1318,-0.1251,-0.1262,-0.1188,-0.1235,-0.1183,-0.1183,-0.1131,-0.1046,-0.0795,-0.063,-0.0583,-0.0727,-0.0928,-0.0902,-0.0848,-0.0884,-0.0829,-0.0916,-0.0992,-0.1024,-0.1054,-0.1065,-0.0755,-0.0755,-0.0782,-0.0782,-0.0782]},{"header":{"parameterUnit":"m.s-1","parameterCategory":2,"la1":30.2991,"la2":30.254,"lo1":-89.0895,"lo2":-89.0444,"dy":0.0017,"dx":0.0017,"nx":28,"ny":28,"refTime":"2023-10-19T21:00:00:Z","depth":"0","parameterNumber":3,"parameterNumberName":"V-component_of_CURRENTS"},"data":[0,0,0,0,0,0,0,0,0,0,0,0,0,0,0,0,0,0,0,0,0,0,0,0,0,0,0,0,0,0,0,0,0,0,0,0,0,0,0,0,0,0,0,0,0,0,0,0,0,0,0,0,0,0,0,0,0,0,0.0543,0.0544,0,0.0672,0.0673,0.0675,0.0752,0.0753,0.0753,0.0753,0.0892,0.0895,0.0898,0,0,0,0,0,0,0,0,0,0,0,0,0,0.0406,0.0408,0.0543,0.0544,0.0546,0.0672,0.0673,0.0675,0.0752,0.0753,0.0753,0.0753,0.0891,0.0895,0.0899,0,0,0,0,0,0,0,0,0,0,0,0,0,0.0494,0.0409,0.0543,0.0599,0.0606,0.0671,0.0673,0.0676,0.0752,0.0753,0.0753,0.0754,0.0889,0.0894,0.0899,0.0921,0,0,0.0915,0.0917,0,0,0,0,0,0,0,0,0.0488,0.0499,0.0589,0.0595,0.0603,0.0696,0.0676,0.0758,0.0752,0.0697,0.0753,0.0754,0.0827,0.0837,0.0861,0.0928,0.0934,0.0915,0.0918,0.0921,0.0922,0,0,0,0,0,0,0,0.0482,0.0494,0.0594,0.0591,0.0599,0.0633,0.0645,0.0692,0.0758,0.0702,0.0708,0.0721,0.083,0.0855,0.0864,0.0936,0.0915,0.092,0.0923,0.0925,0.1029,0.1029,0,0,0,0,0,0,0.0463,0.0488,0.059,0.0598,0.0545,0.0635,0.0649,0.0666,0.0758,0.0772,0.0721,0.0724,0.0847,0.0858,0.087,0.0897,0.0921,0.0925,0.0928,0.103,0.1029,0.1029,0,0,0,0,0,0,0.046,0.0471,0.0585,0.0545,0.0562,0.0636,0.0655,0.0668,0.069,0.0772,0.0786,0.0728,0.0847,0.0862,0.0903,0.0903,0.0928,0.0932,0.103,0.103,0.1029,0.0953,0,0,0,0,0,0,0.0455,0.0469,0.0462,0.0544,0.0564,0.0601,0.0655,0.067,0.0698,0.0704,0.0783,0.0797,0.0849,0.0895,0.0908,0.091,0.0936,0.103,0.103,0.1029,0.0956,0.095,0.0945,0,0,0,0,0,0.045,0.0429,0.0461,0.0473,0.0556,0.06,0.0612,0.0668,0.0697,0.0692,0.0754,0.0794,0.0901,0.0899,0.0914,0.0918,0.1031,0.103,0.1029,0.0959,0.0952,0.0946,0,0,0,0,0,0,0.0357,0.0438,0.0474,0.0478,0.0528,0.0613,0.0607,0.0658,0.0704,0.0708,0.0791,0.0809,0.0841,0.0888,0.0883,0.0946,0.0973,0.0975,0.0913,0.0907,0.0902,0.0888,0.094,0,0,0,0,0,0.0336,0.0345,0.043,0.0427,0.0449,0.0529,0.0551,0.0595,0.0653,0.0675,0.0736,0.0799,0.0852,0.0884,0.0929,0.0966,0.0977,0.0978,0.0972,0.0968,0.0966,0.0997,0.0994,0.1027,0.1027,0.1027,0,0,0.03,0.0342,0.0348,0.0408,0.0451,0.0471,0.0542,0.0565,0.059,0.0681,0.0716,0.0774,0.0854,0.0892,0.0913,0.0933,0.0952,0.0967,0.0962,0.0964,0.0996,0.0993,0.099,0.1027,0.1027,0.1027,0,0,0.0225,0.0269,0.0253,0.0293,0.0351,0.0407,0.041,0.0493,0.0533,0.0577,0.0652,0.0714,0.0784,0.0857,0.0901,0.0894,0.0914,0.09,0.0875,0.0904,0.0902,0.09,0.0851,0.0846,0.0908,0.0908,0.0908,0,0.0175,0.0184,0.025,0.025,0.0277,0.0374,0.0371,0.0426,0.0512,0.0547,0.0567,0.0703,0.0773,0.0851,0.0856,0.0884,0.0869,0.0892,0.0896,0.0895,0.0894,0.0846,0.0841,0.0904,0.0905,0.0905,0.0906,0,0.0101,0.0114,0.0103,0.0147,0.0177,0.0188,0.028,0.0313,0.0375,0.0446,0.052,0.0625,0.071,0.0746,0.0804,0.0846,0.0821,0.0874,0.0908,0.0886,0.0836,0.0832,0.0899,0.09,0.0902,0.0902,0,0,-0.0009,0.0043,0.0042,0.0056,0.013,0.015,0.0183,0.0256,0.0291,0.0377,0.0425,0.0548,0.0616,0.0671,0.076,0.0807,0.0786,0.0833,0.0836,0.0774,0.0776,0.0832,0.0833,0.0831,0.0832,0.0832,0.0722,0,-0.008,-0.0101,-0.005,-0.0056,-0.0049,0.0046,0.0072,0.0149,0.0233,0.0299,0.0428,0.05,0.0586,0.0631,0.069,0.077,0.0781,0.0807,0.0817,0.0816,0.0863,0.0835,0.0889,0.0804,0.0718,0.0717,0.0717,0,-0.0162,-0.0156,-0.0185,-0.0131,-0.0121,-0.0107,-0.0032,0.0003,0.0125,0.0188,0.0291,0.0392,0.0492,0.0564,0.0658,0.0661,0.0702,0.0756,0.0754,0.0839,0.0869,0.0826,0.0801,0.0945,0.0711,0.0712,0.0712,0,-0.0267,-0.0243,-0.0269,-0.0252,-0.0188,-0.0177,-0.0137,-0.0032,0.0005,0.0121,0.0155,0.0292,0.0347,0.0439,0.0578,0.0596,0.0659,0.0698,0.077,0.077,0.084,0.0848,0.0959,0.0739,0.0739,0.0739,0.0739,0,-0.0356,-0.0365,-0.0315,-0.0327,-0.033,-0.0265,-0.0247,-0.018,-0.0097,-0.0062,0.0088,0.0144,0.032,0.0406,0.0516,0.0628,0.0601,0.0749,0.0764,0.0809,0.0816,0.0967,0.1028,0.0735,0.0736,0.0737,0.0737,0,-0.0457,-0.0435,-0.0449,-0.0402,-0.0381,-0.0387,-0.0316,-0.0295,-0.0223,-0.0179,-0.0155,0.0001,0.0118,0.0287,0.0431,0.0537,0.0741,0.0698,0.0707,0.0728,0.0945,0.0997,0.1077,0.1173,0.0725,0.0726,0.0727,0,-0.05,-0.0527,-0.051,-0.0508,-0.0482,-0.0463,-0.0441,-0.0364,-0.0339,-0.0255,-0.0247,-0.0121,0.0025,0.0245,0.0463,0.0635,0.0766,0.0758,0.0845,0.0961,0.1029,0.1053,0.1131,0.0857,0.0859,0.086,0.0862,0,-0.0565,-0.0574,-0.059,-0.0587,-0.0573,-0.0556,-0.0521,-0.0521,-0.045,-0.0382,-0.0292,-0.0172,0.0054,0.0334,0.0572,0.0682,0.0887,0.0794,0.0935,0.1163,0.1175,0.1274,0.0865,0.0875,0.0874,0.0873,0.0872,0.0871,-0.0594,-0.0626,-0.0645,-0.0638,-0.0635,-0.0622,-0.0589,-0.0535,-0.0475,-0.0294,-0.0253,0.0065,0.0278,0.0661,0.078,0.1053,0.1006,0.1144,0.1187,0.1191,0.1348,0.0942,0.0984,0.0984,0.0983,0.0983,0.0982,0,-0.0596,-0.0636,-0.0662,-0.0659,-0.066,-0.064,-0.0611,-0.0534,-0.0414,-0.0166,0.0042,0.0503,0.0796,0.1028,0.1309,0.1454,0.1494,0.1513,0.1574,0.1631,0.1288,0.1366,0.1472,0.1472,0.1472,0.1471,0.1471,0.1471,-0.0593,-0.0637,-0.066,-0.0658,-0.0652,-0.0604,-0.0572,-0.0421,-0.0219,0.024,0.0663,0.095,0.1179,0.1517,0.1799,0.1823,0.1983,0.193,0.2016,0.1804,0.1773,0.1744,0.1836,0.2038,0.2039,0.237,0.2373,0.2376]}],[{"header":{"parameterUnit":"m.s-1","parameterCategory":2,"la1":30.2991,"la2":30.254,"lo1":-89.0895,"lo2":-89.0444,"dy":0.0017,"dx":0.0017,"nx":28,"ny":28,"refTime":"2023-10-19T21:00:00:Z","depth":"2","parameterNumber":2,"parameterNumberName":"U-component_of_CURRENTS"},"data":[0,0,0,0,0,0,0,0,0,0,0,0,0,0,0,0,0,0,0,0,0,0,0,0,0,0,0,0,0,0,0,0,0,0,0,0,0,0,0,0,0,0,0,0,0,0,0,0,0,0,0,0,0,0,0,0,0,0,-0.2859,-0.2864,0,-0.2962,-0.296,-0.2957,-0.2891,-0.2893,-0.2894,-0.2896,-0.3107,-0.3111,-0.3115,0,0,0,0,0,0,0,0,0,0,0,0,0,-0.2584,-0.2585,-0.2859,-0.2865,-0.2871,-0.2963,-0.2959,-0.2956,-0.2891,-0.2893,-0.2895,-0.2897,-0.3106,-0.3111,-0.3116,0,0,0,0,0,0,0,0,0,0,0,0,0,-0.2648,-0.2585,-0.2858,-0.2887,-0.2894,-0.2964,-0.2959,-0.2955,-0.289,-0.2893,-0.2895,-0.2897,-0.3104,-0.311,-0.3117,-0.3107,0,0,-0.3135,-0.3138,0,0,0,0,0,0,0,0,-0.2645,-0.2652,-0.2877,-0.2886,-0.2895,-0.2961,-0.2943,-0.3029,-0.289,-0.2838,-0.2896,-0.2899,-0.31,-0.3107,-0.3046,-0.3116,-0.3126,-0.3136,-0.314,-0.3142,-0.3144,0,0,0,0,0,0,0,-0.264,-0.2648,-0.2848,-0.2884,-0.2895,-0.2892,-0.2898,-0.2954,-0.2917,-0.2842,-0.2851,-0.2943,-0.3099,-0.304,-0.3053,-0.3129,-0.3136,-0.3141,-0.3145,-0.3148,-0.3228,-0.3227,0,0,0,0,0,0,-0.2729,-0.2643,-0.2846,-0.2856,-0.2831,-0.2899,-0.2903,-0.2895,-0.2914,-0.2933,-0.2941,-0.2941,-0.3028,-0.3045,-0.3061,-0.32,-0.3142,-0.3148,-0.3152,-0.323,-0.3228,-0.3226,0,0,0,0,0,0,-0.272,-0.2741,-0.2842,-0.2799,-0.2818,-0.2906,-0.2895,-0.2898,-0.2904,-0.2997,-0.3007,-0.2961,-0.3031,-0.3052,-0.3166,-0.3204,-0.3151,-0.3157,-0.3232,-0.3229,-0.3227,-0.3387,0,0,0,0,0,0,-0.2709,-0.2733,-0.2735,-0.2802,-0.2826,-0.2913,-0.2899,-0.29,-0.2979,-0.2978,-0.3018,-0.3034,-0.3034,-0.3157,-0.3173,-0.3211,-0.3161,-0.3234,-0.3231,-0.3228,-0.3384,-0.339,-0.3396,0,0,0,0,0,-0.2696,-0.271,-0.273,-0.276,-0.2828,-0.292,-0.2923,-0.2963,-0.2979,-0.2969,-0.3024,-0.3036,-0.3145,-0.3164,-0.3182,-0.3223,-0.3235,-0.3231,-0.3228,-0.3381,-0.3389,-0.3396,0,0,0,0,0,0,-0.2607,-0.2712,-0.2734,-0.278,-0.287,-0.2929,-0.2958,-0.2997,-0.3013,-0.3044,-0.307,-0.3091,-0.3195,-0.3168,-0.3187,-0.3216,-0.317,-0.317,-0.3279,-0.3288,-0.3294,-0.3188,-0.3167,0,0,0,0,0,-0.2596,-0.2646,-0.2736,-0.2808,-0.2823,-0.289,-0.2937,-0.299,-0.3056,-0.306,-0.3082,-0.311,-0.3172,-0.3209,-0.3234,-0.3287,-0.3183,-0.3295,-0.3301,-0.3308,-0.3221,-0.3117,-0.3107,-0.3215,-0.3215,-0.3215,0,0,-0.2614,-0.2689,-0.2723,-0.28,-0.284,-0.286,-0.2906,-0.3019,-0.3044,-0.3095,-0.3094,-0.3168,-0.3195,-0.3248,-0.3283,-0.325,-0.3231,-0.3303,-0.331,-0.3217,-0.3112,-0.3102,-0.3092,-0.3212,-0.3213,-0.3213,0,0,-0.268,-0.2693,-0.2726,-0.2767,-0.2904,-0.2921,-0.2973,-0.303,-0.3034,-0.3119,-0.3145,-0.3221,-0.3288,-0.3281,-0.3307,-0.3347,-0.3286,-0.3373,-0.3322,-0.3228,-0.3218,-0.3208,-0.3116,-0.3096,-0.3356,-0.3357,-0.3357,0,-0.2687,-0.271,-0.2767,-0.2792,-0.2847,-0.2944,-0.2971,-0.2978,-0.308,-0.3076,-0.3143,-0.3195,-0.3273,-0.33,-0.3325,-0.3366,-0.3296,-0.3329,-0.3239,-0.3226,-0.3213,-0.312,-0.3097,-0.3364,-0.3363,-0.3362,-0.3362,0,-0.2726,-0.2749,-0.2777,-0.2803,-0.2865,-0.2924,-0.298,-0.2989,-0.3051,-0.3066,-0.3127,-0.3209,-0.3212,-0.3283,-0.3351,-0.33,-0.3281,-0.3293,-0.3237,-0.3213,-0.3116,-0.3089,-0.3374,-0.3372,-0.337,-0.3368,0,0,-0.2692,-0.277,-0.2778,-0.2779,-0.2867,-0.2916,-0.2944,-0.2955,-0.2942,-0.302,-0.2993,-0.3125,-0.3148,-0.3164,-0.3247,-0.3193,-0.3134,-0.3214,-0.3206,-0.3147,-0.2919,-0.2868,-0.2833,-0.3157,-0.3152,-0.3148,-0.2911,0,-0.2675,-0.2711,-0.2773,-0.2804,-0.2787,-0.2861,-0.2856,-0.2913,-0.2955,-0.2925,-0.2994,-0.3026,-0.3108,-0.3174,-0.3125,-0.3149,-0.3056,-0.3194,-0.292,-0.2909,-0.2889,-0.2796,-0.2647,-0.2418,-0.2883,-0.2878,-0.2875,0,-0.2627,-0.2662,-0.2689,-0.2738,-0.2732,-0.2772,-0.2778,-0.2806,-0.2798,-0.2837,-0.2851,-0.2901,-0.2884,-0.2966,-0.2845,-0.294,-0.2895,-0.2887,-0.2878,-0.2723,-0.2803,-0.2499,-0.2349,-0.2827,-0.2831,-0.2835,-0.2838,0,-0.252,-0.2581,-0.2606,-0.2621,-0.2686,-0.2709,-0.2739,-0.2766,-0.2754,-0.2771,-0.277,-0.2748,-0.2756,-0.268,-0.2696,-0.2761,-0.2537,-0.2617,-0.2488,-0.2486,-0.2231,-0.2215,-0.2424,-0.2424,-0.2425,-0.2425,-0.2426,0,-0.2418,-0.2422,-0.2552,-0.2544,-0.2544,-0.2645,-0.2631,-0.2653,-0.2669,-0.263,-0.2702,-0.2664,-0.2683,-0.2601,-0.2595,-0.2439,-0.2426,-0.2397,-0.2387,-0.229,-0.2282,-0.2526,-0.2541,-0.2417,-0.2419,-0.242,-0.2422,0,-0.2295,-0.2361,-0.2376,-0.2467,-0.2493,-0.2503,-0.2563,-0.2523,-0.2574,-0.2535,-0.2541,-0.2547,-0.245,-0.243,-0.2322,-0.2289,-0.2182,-0.2122,-0.2019,-0.2,-0.2214,-0.224,-0.1908,-0.1903,-0.1899,-0.1896,-0.1893,0,-0.2227,-0.2232,-0.2334,-0.2325,-0.2369,-0.24,-0.2391,-0.2464,-0.2446,-0.245,-0.2404,-0.2336,-0.2255,-0.2069,-0.2006,-0.1877,-0.2007,-0.1679,-0.1754,-0.2119,-0.2145,-0.2177,-0.2207,-0.1499,-0.1494,-0.1489,-0.1485,0,-0.2091,-0.2155,-0.218,-0.2189,-0.2195,-0.219,-0.221,-0.2188,-0.2255,-0.2227,-0.2162,-0.2105,-0.1955,-0.1767,-0.1644,-0.1573,-0.1703,-0.1579,-0.1901,-0.1689,-0.1724,-0.1755,-0.1798,-0.1444,-0.1448,-0.1451,-0.1453,-0.1455,-0.2,-0.1991,-0.2033,-0.2024,-0.2016,-0.1973,-0.1917,-0.1949,-0.1905,-0.1869,-0.1912,-0.1779,-0.1716,-0.1438,-0.1327,-0.1251,-0.1379,-0.1337,-0.1354,-0.1376,-0.1407,-0.1436,-0.1106,-0.1108,-0.111,-0.1112,-0.1113,0,-0.1856,-0.1859,-0.1844,-0.1814,-0.1741,-0.1804,-0.1764,-0.1683,-0.1603,-0.1653,-0.1601,-0.1358,-0.1205,-0.115,-0.0959,-0.0914,-0.0938,-0.0881,-0.0926,-0.0965,-0.1001,-0.1018,-0.0611,-0.061,-0.0609,-0.0608,0,0,-0.1762,-0.1701,-0.1699,-0.1544,-0.1526,-0.1384,-0.1335,-0.1268,-0.1259,-0.1192,-0.1156,-0.1228,-0.1164,-0.0926,-0.0838,-0.0709,-0.0852,-0.0668,-0.1067,-0.1165,-0.1201,-0.1248,-0.1315,0,0,0,0,0]},{"header":{"parameterUnit":"m.s-1","parameterCategory":2,"la1":30.2991,"la2":30.254,"lo1":-89.0895,"lo2":-89.0444,"dy":0.0017,"dx":0.0017,"nx":28,"ny":28,"refTime":"2023-10-19T21:00:00:Z","depth":"2","parameterNumber":3,"parameterNumberName":"V-component_of_CURRENTS"},"data":[0,0,0,0,0,0,0,0,0,0,0,0,0,0,0,0,0,0,0,0,0,0,0,0,0,0,0,0,0,0,0,0,0,0,0,0,0,0,0,0,0,0,0,0,0,0,0,0,0,0,0,0,0,0,0,0,0,0,-0.0386,-0.0385,0,-0.034,-0.034,-0.0341,-0.0279,-0.0277,-0.0275,-0.0273,-0.0059,-0.0055,-0.0051,0,0,0,0,0,0,0,0,0,0,0,0,0,-0.0521,-0.0519,-0.0386,-0.0385,-0.0383,-0.034,-0.034,-0.0341,-0.0279,-0.0277,-0.0274,-0.0272,-0.006,-0.0056,-0.0051,0,0,0,0,0,0,0,0,0,0,0,0,0,-0.0477,-0.0518,-0.0387,-0.034,-0.0335,-0.034,-0.034,-0.0341,-0.028,-0.0277,-0.0274,-0.0271,-0.0062,-0.0056,-0.005,-0.0073,0,0,-0.0032,-0.003,0,0,0,0,0,0,0,0,-0.0479,-0.0473,-0.0348,-0.0343,-0.0337,-0.0303,-0.0309,-0.0239,-0.028,-0.0311,-0.0273,-0.027,-0.0121,-0.011,-0.0124,-0.0063,-0.0054,-0.0032,-0.0028,-0.0026,-0.0024,0,0,0,0,0,0,0,-0.0482,-0.0475,-0.0378,-0.0347,-0.034,-0.0355,-0.0345,-0.0297,-0.0238,-0.0308,-0.0301,-0.0281,-0.0117,-0.0131,-0.0118,-0.005,-0.0032,-0.0027,-0.0023,-0.0021,0.0029,0.0027,0,0,0,0,0,0,-0.0465,-0.0478,-0.038,-0.0376,-0.0391,-0.0353,-0.0344,-0.0325,-0.0242,-0.0224,-0.0283,-0.0278,-0.0142,-0.0125,-0.011,0.0005,-0.0026,-0.0021,-0.0017,0.0031,0.0029,0.0026,0,0,0,0,0,0,-0.0469,-0.0457,-0.0381,-0.0418,-0.0407,-0.0352,-0.0334,-0.0326,-0.0283,-0.0223,-0.0204,-0.0241,-0.0139,-0.0118,-0.0046,0.0009,-0.0018,-0.0013,0.0034,0.003,0.0027,0.0148,0,0,0,0,0,0,-0.0473,-0.0459,-0.0455,-0.0416,-0.0404,-0.037,-0.0335,-0.0327,-0.0274,-0.0265,-0.0181,-0.0162,-0.0135,-0.0055,-0.004,0.0017,-0.0008,0.0037,0.0032,0.0029,0.0147,0.015,0.0152,0,0,0,0,0,-0.0478,-0.0479,-0.0456,-0.0444,-0.0396,-0.0369,-0.0366,-0.0325,-0.0274,-0.0272,-0.021,-0.0161,-0.0071,-0.0051,-0.0033,0.0027,0.0039,0.0034,0.0029,0.0146,0.0149,0.0152,0,0,0,0,0,0,-0.0534,-0.047,-0.0444,-0.0424,-0.039,-0.0354,-0.0353,-0.03,-0.0256,-0.0228,-0.0162,-0.0142,-0.0066,-0.0066,-0.0045,0.0009,-0.0019,-0.0021,0.0063,0.0067,0.0069,-0.0021,-0.0003,0,0,0,0,0,-0.0545,-0.0525,-0.0468,-0.0452,-0.0438,-0.0386,-0.0367,-0.0322,-0.027,-0.0246,-0.0196,-0.0149,-0.009,-0.0042,-0.0024,0.0033,0.0022,0.006,0.0063,0.0066,-0.0008,0.0041,0.0043,0.001,0.001,0.001,0,0,-0.0562,-0.0522,-0.0512,-0.0463,-0.0441,-0.043,-0.037,-0.0326,-0.0295,-0.0227,-0.0189,-0.013,-0.0082,-0.0029,0.0003,0.0,0.0077,0.006,0.0064,-0.0015,0.0036,0.004,0.0044,0.0007,0.0008,0.0008,0,0,-0.0594,-0.0553,-0.0555,-0.0532,-0.0473,-0.0441,-0.0411,-0.0359,-0.0316,-0.0268,-0.0203,-0.0128,-0.0071,-0.0018,0.0022,0.0035,0.0083,0.0055,0.0028,0.0082,0.0086,0.009,0.0139,0.0145,0.0069,0.0069,0.0069,0,-0.062,-0.0607,-0.0554,-0.0554,-0.0525,-0.0438,-0.0426,-0.0389,-0.0316,-0.0281,-0.0255,-0.0149,-0.0081,0.0025,0.0016,0.0053,0.0074,0.005,0.0093,0.0096,0.0098,0.0146,0.0152,0.0074,0.0074,0.0073,0.0073,0,-0.0657,-0.0649,-0.065,-0.0617,-0.058,-0.0557,-0.0479,-0.0444,-0.0371,-0.0327,-0.0229,-0.0149,-0.0088,-0.003,0.0004,0.0068,0.0081,0.0103,0.0111,0.011,0.016,0.0164,0.0082,0.008,0.0078,0.0077,0,0,-0.0711,-0.0684,-0.0685,-0.0676,-0.06,-0.0572,-0.052,-0.0453,-0.0409,-0.0339,-0.028,-0.0172,-0.0118,-0.0083,0.0017,0.0055,0.0136,0.0072,0.0073,0.0159,0.0254,0.0283,0.0291,0.0195,0.0195,0.0195,0.0308,0,-0.0759,-0.078,-0.073,-0.0726,-0.0726,-0.063,-0.0598,-0.0513,-0.0432,-0.0376,-0.0251,-0.0176,-0.0127,-0.0056,-0.0006,0.0086,0.0139,0.01,0.0198,0.0199,0.026,0.0293,0.0286,0.0386,0.0312,0.0313,0.0314,0,-0.0812,-0.0814,-0.0829,-0.0776,-0.0764,-0.0744,-0.0645,-0.0595,-0.0486,-0.0422,-0.0318,-0.0228,-0.0125,-0.0095,0.0048,0.0029,0.011,0.0173,0.0182,0.0141,0.0233,0.0354,0.0396,0.0321,0.032,0.032,0.0319,0,-0.0879,-0.0871,-0.088,-0.0869,-0.0811,-0.0782,-0.0729,-0.0622,-0.0568,-0.0444,-0.0395,-0.0258,-0.0172,-0.0076,0.006,0.0062,0.0192,0.0237,0.0341,0.0346,0.0309,0.031,0.0301,0.0301,0.03,0.03,0.03,0,-0.094,-0.0949,-0.0925,-0.0936,-0.0936,-0.0845,-0.0802,-0.0738,-0.0629,-0.0562,-0.0424,-0.0334,-0.0175,-0.0056,0.0047,0.0204,0.0204,0.0303,0.0367,0.0354,0.0357,0.0246,0.0239,0.0304,0.0303,0.0303,0.0302,0,-0.101,-0.1001,-0.1022,-0.0987,-0.0977,-0.0969,-0.0871,-0.0835,-0.0723,-0.0625,-0.0584,-0.0399,-0.0228,-0.0066,0.0112,0.0205,0.0342,0.04,0.0367,0.0423,0.0464,0.046,0.0523,0.0525,0.0527,0.0528,0.0529,0,-0.1046,-0.1073,-0.1082,-0.1095,-0.1083,-0.105,-0.1026,-0.0909,-0.0841,-0.0649,-0.0605,-0.0416,-0.0242,0.0028,0.0215,0.0421,0.0405,0.0513,0.0496,0.0425,0.0482,0.0476,0.047,0.0526,0.0527,0.0528,0.0528,0,-0.111,-0.1123,-0.114,-0.1185,-0.1181,-0.1159,-0.1094,-0.1059,-0.0889,-0.0781,-0.0593,-0.0443,-0.0144,0.0106,0.0355,0.046,0.0474,0.0535,0.0489,0.0459,0.0434,0.0488,0.0481,0.0535,0.0534,0.0534,0.0533,0.0533,-0.1152,-0.1188,-0.122,-0.125,-0.1256,-0.1234,-0.121,-0.1102,-0.0989,-0.0793,-0.062,-0.0385,-0.0112,0.0245,0.0444,0.0585,0.0578,0.0606,0.0601,0.0596,0.0565,0.0542,0.0658,0.0658,0.0658,0.0658,0.0658,0,-0.1186,-0.1223,-0.1267,-0.1294,-0.1308,-0.1297,-0.123,-0.117,-0.1032,-0.0814,-0.0604,-0.0297,0.0007,0.0243,0.0508,0.0686,0.0661,0.0682,0.0634,0.0627,0.0621,0.0587,0.0689,0.0689,0.0689,0.069,0,0,-0.1201,-0.1249,-0.1271,-0.1315,-0.1338,-0.1332,-0.1301,-0.1195,-0.1029,-0.0794,-0.0607,-0.035,-0.0,0.019,0.0436,0.0572,0.054,0.0565,0.0526,0.0436,0.0428,0.0567,0.0507,0,0,0,0,0]}],[{"header":{"parameterUnit":"m.s-1","parameterCategory":2,"la1":30.2991,"la2":30.254,"lo1":-89.0895,"lo2":-89.0444,"dy":0.0017,"dx":0.0017,"nx":28,"ny":28,"refTime":"2023-10-19T21:00:00:Z","depth":"4","parameterNumber":2,"parameterNumberName":"U-component_of_CURRENTS"},"data":[0,0,0,0,0,0,0,0,0,0,0,0,0,0,0,0,0,0,0,0,0,0,0,0,0,0,0,0,0,0,0,0,0,0,0,0,0,0,0,0,0,0,0,0,0,0,0,0,0,0,0,0,0,0,0,0,0,0,-0.1351,-0.1351,0,-0.1386,-0.1387,-0.1387,-0.1423,-0.1423,-0.1424,-0.1424,-0.1532,-0.1535,-0.1537,0,0,0,0,0,0,0,0,0,0,0,0,0,-0.1277,-0.1278,-0.1351,-0.1351,-0.1351,-0.1386,-0.1387,-0.1387,-0.1423,-0.1423,-0.1424,-0.1424,-0.1532,-0.1534,-0.1538,0,0,0,0,0,0,0,0,0,0,0,0,0,-0.1311,-0.1279,-0.1351,-0.1372,-0.1375,-0.1386,-0.1387,-0.1387,-0.1423,-0.1423,-0.1424,-0.1424,-0.1531,-0.1534,-0.1538,-0.155,0,0,-0.155,-0.1551,0,0,0,0,0,0,0,0,-0.1309,-0.1314,-0.1369,-0.1371,-0.1373,-0.14,-0.14,-0.1445,-0.1422,-0.1406,-0.1424,-0.1425,-0.1494,-0.15,-0.1506,-0.1555,-0.156,-0.155,-0.1552,-0.1554,-0.1555,0,0,0,0,0,0,0,-0.1307,-0.1313,-0.1366,-0.1369,-0.1372,-0.1368,-0.1374,-0.1408,-0.1448,-0.1407,-0.1409,-0.1412,-0.1496,-0.1502,-0.1509,-0.1561,-0.155,-0.1553,-0.1555,-0.1557,-0.1735,-0.1737,0,0,0,0,0,0,-0.1302,-0.1311,-0.1365,-0.1367,-0.1341,-0.1369,-0.1375,-0.1392,-0.1446,-0.1454,-0.1411,-0.1413,-0.1496,-0.1505,-0.1513,-0.1597,-0.1554,-0.1557,-0.156,-0.1733,-0.1735,-0.1738,0,0,0,0,0,0,-0.1301,-0.1307,-0.1363,-0.1338,-0.1344,-0.137,-0.1387,-0.1392,-0.1419,-0.1448,-0.1458,-0.1435,-0.1497,-0.1508,-0.1579,-0.1599,-0.1559,-0.1563,-0.173,-0.1733,-0.1737,-0.1722,0,0,0,0,0,0,-0.1299,-0.1307,-0.1327,-0.1338,-0.1346,-0.1395,-0.1387,-0.1392,-0.1418,-0.1421,-0.1472,-0.1481,-0.1498,-0.1573,-0.1583,-0.1604,-0.1565,-0.1727,-0.1731,-0.1736,-0.172,-0.1725,-0.173,0,0,0,0,0,-0.1296,-0.1316,-0.1329,-0.1335,-0.137,-0.1396,-0.1401,-0.142,-0.1418,-0.1443,-0.1482,-0.1481,-0.1609,-0.1578,-0.1589,-0.1611,-0.1724,-0.173,-0.1735,-0.1717,-0.1724,-0.1729,0,0,0,0,0,0,-0.1292,-0.1321,-0.1336,-0.1364,-0.1391,-0.1402,-0.142,-0.143,-0.1476,-0.1485,-0.1509,-0.1522,-0.1593,-0.1615,-0.158,-0.1682,-0.1668,-0.1676,-0.1651,-0.1658,-0.1662,-0.1653,-0.1569,0,0,0,0,0,-0.1301,-0.1328,-0.1353,-0.1379,-0.1391,-0.1409,-0.1423,-0.144,-0.1472,-0.1492,-0.1531,-0.1577,-0.162,-0.1649,-0.1697,-0.1747,-0.1746,-0.1774,-0.1779,-0.1783,-0.1787,-0.1813,-0.1819,-0.1756,-0.1756,-0.1756,0,0,-0.1306,-0.1325,-0.1341,-0.1381,-0.1397,-0.1425,-0.1421,-0.1451,-0.1486,-0.1498,-0.1569,-0.16,-0.1642,-0.1703,-0.1736,-0.1723,-0.1797,-0.179,-0.1792,-0.1794,-0.1819,-0.1825,-0.183,-0.176,-0.1759,-0.1759,0,0,-0.1313,-0.1347,-0.1368,-0.1394,-0.1428,-0.1446,-0.146,-0.1495,-0.1528,-0.1595,-0.1609,-0.1655,-0.1734,-0.1756,-0.1776,-0.1842,-0.1826,-0.1864,-0.1872,-0.1897,-0.1901,-0.1905,-0.1883,-0.1885,-0.186,-0.186,-0.186,0,-0.132,-0.135,-0.1379,-0.1402,-0.1425,-0.1458,-0.1485,-0.1524,-0.1584,-0.1613,-0.163,-0.1726,-0.1757,-0.1803,-0.1826,-0.1848,-0.1847,-0.1834,-0.1898,-0.1903,-0.1907,-0.1883,-0.1885,-0.186,-0.186,-0.186,-0.186,0,-0.1337,-0.1369,-0.1381,-0.1429,-0.1463,-0.1493,-0.1544,-0.1593,-0.1636,-0.1669,-0.1744,-0.1785,-0.1837,-0.1852,-0.1858,-0.1901,-0.1884,-0.1898,-0.1868,-0.1911,-0.1885,-0.1887,-0.186,-0.186,-0.186,-0.186,0,0,-0.1329,-0.1384,-0.1391,-0.1418,-0.148,-0.1509,-0.1575,-0.1638,-0.1676,-0.1747,-0.1794,-0.1859,-0.1871,-0.1897,-0.1905,-0.1919,-0.1932,-0.1919,-0.192,-0.1869,-0.1954,-0.1803,-0.1791,-0.1955,-0.1956,-0.1957,-0.1912,0,-0.1335,-0.1378,-0.1412,-0.1466,-0.1492,-0.1548,-0.1605,-0.167,-0.173,-0.1792,-0.1833,-0.1893,-0.1892,-0.1913,-0.193,-0.1948,-0.1944,-0.194,-0.1946,-0.1946,-0.1783,-0.1791,-0.1961,-0.1914,-0.1914,-0.1915,-0.1915,0,-0.1337,-0.1367,-0.1415,-0.1483,-0.1502,-0.1548,-0.1636,-0.1693,-0.1778,-0.1824,-0.1875,-0.1914,-0.1956,-0.1953,-0.1981,-0.198,-0.1967,-0.1964,-0.1963,-0.183,-0.1799,-0.1875,-0.1919,-0.1919,-0.1919,-0.1918,-0.1918,0,-0.1308,-0.1371,-0.1412,-0.1436,-0.1518,-0.1561,-0.1617,-0.1701,-0.1749,-0.1844,-0.1885,-0.194,-0.198,-0.1991,-0.1987,-0.1997,-0.1993,-0.201,-0.1849,-0.1837,-0.1991,-0.1988,-0.2016,-0.2016,-0.2016,-0.2016,-0.2016,0,-0.129,-0.1324,-0.1405,-0.1426,-0.1477,-0.1551,-0.1612,-0.1676,-0.1761,-0.1811,-0.1898,-0.1925,-0.1998,-0.2006,-0.1992,-0.1908,-0.1998,-0.1838,-0.1819,-0.1984,-0.1981,-0.199,-0.1987,-0.2014,-0.2014,-0.2015,-0.2015,0,-0.1237,-0.1294,-0.1344,-0.1435,-0.146,-0.1502,-0.1595,-0.1636,-0.1734,-0.1801,-0.1837,-0.1928,-0.1929,-0.1946,-0.1953,-0.1896,-0.1845,-0.1788,-0.1926,-0.1917,-0.1668,-0.1667,-0.1612,-0.1607,-0.1602,-0.1598,-0.1595,0,-0.1209,-0.1228,-0.1328,-0.1354,-0.1395,-0.146,-0.1496,-0.1603,-0.1646,-0.1777,-0.1798,-0.1845,-0.1881,-0.1746,-0.1787,-0.1717,-0.1698,-0.1664,-0.1696,-0.1642,-0.163,-0.1635,-0.164,-0.1587,-0.1586,-0.1585,-0.1583,0,-0.1146,-0.1197,-0.1236,-0.1282,-0.1331,-0.137,-0.1439,-0.1455,-0.1583,-0.1692,-0.1699,-0.169,-0.1672,-0.1645,-0.1585,-0.1548,-0.1692,-0.1614,-0.1625,-0.1654,-0.1611,-0.1604,-0.1615,-0.1567,-0.1569,-0.1571,-0.1572,0,-0.1098,-0.1109,-0.1164,-0.1192,-0.1251,-0.1264,-0.1312,-0.135,-0.1396,-0.1554,-0.1543,-0.1587,-0.1654,-0.1554,-0.1508,-0.1445,-0.1434,-0.1407,-0.1429,-0.1447,-0.1413,-0.1335,-0.1175,0,0,0,0,0,-0.1036,-0.1034,-0.1062,-0.109,-0.1147,-0.1167,-0.1264,-0.132,-0.1446,-0.1408,-0.1471,-0.1443,-0.1387,-0.1401,-0.1296,-0.1424,-0.1435,-0.1299,-0.1415,-0.1475,-0.1494,-0.1468,0,0,0,0,0,0,-0.0995,-0.102,-0.1024,-0.0992,-0.0986,-0.1024,-0.1078,-0.1165,-0.1148,-0.1282,-0.1241,-0.1344,-0.1286,-0.1401,-0.1257,-0.126,-0.1303,-0.1326,-0.1322,-0.1464,-0.1481,-0.1497,-0.1477,0,0,0,0,0]},{"header":{"parameterUnit":"m.s-1","parameterCategory":2,"la1":30.2991,"la2":30.254,"lo1":-89.0895,"lo2":-89.0444,"dy":0.0017,"dx":0.0017,"nx":28,"ny":28,"refTime":"2023-10-19T21:00:00:Z","depth":"4","parameterNumber":3,"parameterNumberName":"V-component_of_CURRENTS"},"data":[0,0,0,0,0,0,0,0,0,0,0,0,0,0,0,0,0,0,0,0,0,0,0,0,0,0,0,0,0,0,0,0,0,0,0,0,0,0,0,0,0,0,0,0,0,0,0,0,0,0,0,0,0,0,0,0,0,0,-0.0408,-0.0408,0,-0.0401,-0.0401,-0.0401,-0.0374,-0.0374,-0.0374,-0.0373,-0.0356,-0.0355,-0.0355,0,0,0,0,0,0,0,0,0,0,0,0,0,-0.0402,-0.0402,-0.0408,-0.0408,-0.0409,-0.0401,-0.0401,-0.0401,-0.0374,-0.0374,-0.0374,-0.0373,-0.0356,-0.0356,-0.0355,0,0,0,0,0,0,0,0,0,0,0,0,0,-0.0398,-0.0402,-0.0408,-0.0397,-0.0396,-0.0402,-0.0401,-0.04,-0.0374,-0.0374,-0.0373,-0.0373,-0.0356,-0.0356,-0.0355,-0.0362,0,0,-0.0354,-0.0354,0,0,0,0,0,0,0,0,-0.0398,-0.0397,-0.0399,-0.0398,-0.0397,-0.0391,-0.0393,-0.0388,-0.0374,-0.0379,-0.0373,-0.0373,-0.0369,-0.0368,-0.0363,-0.0361,-0.0361,-0.0354,-0.0354,-0.0354,-0.0354,0,0,0,0,0,0,0,-0.0398,-0.0398,-0.0402,-0.0399,-0.0398,-0.0394,-0.0393,-0.0391,-0.0374,-0.0379,-0.0377,-0.0382,-0.0368,-0.0363,-0.0362,-0.036,-0.0354,-0.0354,-0.0354,-0.0354,-0.0382,-0.0383,0,0,0,0,0,0,-0.0406,-0.0398,-0.0402,-0.0402,-0.04,-0.0395,-0.0393,-0.0391,-0.0374,-0.0372,-0.0383,-0.0381,-0.0364,-0.0362,-0.0361,-0.0403,-0.0354,-0.0354,-0.0354,-0.0381,-0.0383,-0.0384,0,0,0,0,0,0,-0.0406,-0.0406,-0.0403,-0.0403,-0.0403,-0.0396,-0.0393,-0.0391,-0.0389,-0.0378,-0.0375,-0.0384,-0.0363,-0.0362,-0.0373,-0.04,-0.0354,-0.0353,-0.038,-0.0382,-0.0383,-0.0463,0,0,0,0,0,0,-0.0406,-0.0406,-0.0411,-0.0403,-0.0403,-0.0418,-0.0394,-0.0391,-0.0394,-0.0392,-0.0378,-0.0376,-0.0363,-0.0374,-0.0373,-0.0399,-0.0353,-0.0379,-0.0381,-0.0383,-0.046,-0.0467,-0.0474,0,0,0,0,0,-0.0405,-0.0414,-0.0411,-0.0412,-0.0408,-0.0419,-0.0419,-0.041,-0.0395,-0.0404,-0.0395,-0.0376,-0.0384,-0.0375,-0.0374,-0.04,-0.0378,-0.038,-0.0382,-0.0456,-0.0466,-0.0474,0,0,0,0,0,0,-0.0417,-0.0412,-0.0408,-0.0416,-0.0424,-0.0416,-0.0423,-0.0415,-0.0414,-0.041,-0.0391,-0.0389,-0.0408,-0.0392,-0.0382,-0.0412,-0.0377,-0.0379,-0.0434,-0.0443,-0.045,-0.0428,-0.0353,0,0,0,0,0,-0.0422,-0.0425,-0.0426,-0.0436,-0.0437,-0.0431,-0.0434,-0.043,-0.0428,-0.0426,-0.042,-0.0412,-0.0415,-0.0419,-0.0416,-0.0436,-0.0364,-0.045,-0.0457,-0.0463,-0.0444,-0.036,-0.0357,-0.039,-0.039,-0.039,0,0,-0.0432,-0.043,-0.0433,-0.0439,-0.0438,-0.0454,-0.043,-0.0442,-0.0454,-0.0426,-0.0441,-0.0438,-0.0425,-0.0448,-0.0455,-0.0439,-0.0418,-0.0466,-0.0472,-0.0448,-0.0362,-0.0358,-0.0355,-0.0392,-0.0392,-0.0391,0,0,-0.0456,-0.0448,-0.0461,-0.0469,-0.0478,-0.0476,-0.0482,-0.0483,-0.048,-0.0499,-0.0482,-0.0493,-0.0498,-0.0497,-0.0495,-0.0538,-0.0457,-0.0543,-0.0566,-0.0487,-0.0482,-0.0478,-0.0385,-0.0371,-0.055,-0.055,-0.055,0,-0.047,-0.0484,-0.0471,-0.0488,-0.05,-0.0489,-0.0512,-0.051,-0.0518,-0.0513,-0.0513,-0.0512,-0.0518,-0.0528,-0.0553,-0.0555,-0.0481,-0.054,-0.0494,-0.0488,-0.0481,-0.0387,-0.0371,-0.0554,-0.0553,-0.0553,-0.0553,0,-0.0503,-0.052,-0.0529,-0.0545,-0.0555,-0.0575,-0.0573,-0.0581,-0.0577,-0.0569,-0.0574,-0.0578,-0.0567,-0.059,-0.059,-0.0567,-0.0519,-0.0511,-0.0469,-0.0483,-0.0383,-0.0365,-0.056,-0.0558,-0.0557,-0.0556,0,0,-0.0523,-0.0547,-0.0554,-0.0571,-0.0586,-0.0598,-0.0615,-0.062,-0.0615,-0.0623,-0.0608,-0.064,-0.0618,-0.0613,-0.0615,-0.057,-0.049,-0.0528,-0.0522,-0.0429,-0.0284,-0.0309,-0.029,-0.0463,-0.0461,-0.0459,-0.0232,0,-0.0557,-0.0601,-0.0603,-0.0649,-0.067,-0.0664,-0.0676,-0.0675,-0.0663,-0.0645,-0.0629,-0.062,-0.0631,-0.0631,-0.0587,-0.0513,-0.0443,-0.055,-0.0288,-0.028,-0.0296,-0.0272,-0.045,-0.0218,-0.0214,-0.0211,-0.0208,0,-0.059,-0.0615,-0.0666,-0.0693,-0.0699,-0.0725,-0.0728,-0.0736,-0.07,-0.0682,-0.0654,-0.0619,-0.0576,-0.0576,-0.0418,-0.0477,-0.0378,-0.0314,-0.0304,-0.028,-0.0271,-0.0199,-0.0174,-0.0176,-0.0179,-0.0181,-0.0183,0,-0.0612,-0.0659,-0.0701,-0.0715,-0.0742,-0.076,-0.077,-0.0751,-0.0742,-0.0694,-0.0661,-0.0594,-0.0541,-0.0425,-0.0314,-0.0341,-0.0111,-0.0126,-0.0043,-0.0042,-0.005,-0.0057,0.0025,0.0024,0.0024,0.0023,0.0023,0,-0.0645,-0.0681,-0.0719,-0.0745,-0.0787,-0.0788,-0.0811,-0.0802,-0.0765,-0.073,-0.0676,-0.0616,-0.0494,-0.0363,-0.0267,-0.0097,-0.0057,-0.0021,0.0017,-0.0092,-0.0106,-0.0036,-0.0046,0.0032,0.003,0.0028,0.0027,0,-0.0667,-0.0695,-0.0746,-0.0787,-0.0805,-0.0833,-0.085,-0.0848,-0.0803,-0.0748,-0.0725,-0.0592,-0.0418,-0.0291,-0.0081,-0.0026,0.0121,0.0178,0.0074,0.0099,0.0134,0.0117,0.0312,0.0313,0.0314,0.0315,0.0316,0,-0.0683,-0.0713,-0.078,-0.0817,-0.0845,-0.0883,-0.0903,-0.0882,-0.086,-0.0728,-0.0687,-0.0508,-0.0411,-0.0112,-0.0003,0.0207,0.0212,0.0296,0.0188,0.0148,0.0166,0.0147,0.013,0.0317,0.0317,0.0318,0.0318,0,-0.0708,-0.0736,-0.0778,-0.0851,-0.0897,-0.0931,-0.0945,-0.0923,-0.0857,-0.0808,-0.0619,-0.0468,-0.026,-0.0084,0.008,0.0213,0.0232,0.0306,0.0304,0.0203,0.0156,0.0169,0.015,0.0321,0.0321,0.032,0.032,0,-0.0725,-0.0759,-0.0818,-0.0876,-0.0937,-0.0958,-0.0963,-0.09,-0.086,-0.0699,-0.0628,-0.0413,-0.0279,-0.0074,0.0069,0.0196,0.0211,0.0221,0.0224,0.0222,0.0088,0.0007,0.0185,0,0,0,0,0,-0.0732,-0.0774,-0.0835,-0.0901,-0.0957,-0.0986,-0.0978,-0.096,-0.0879,-0.0744,-0.068,-0.0485,-0.0229,-0.0115,0.0014,0.0045,0.0197,0.0193,0.0199,0.0338,0.0335,0.0184,0,0,0,0,0,0,-0.0743,-0.0804,-0.0833,-0.0905,-0.095,-0.0999,-0.0994,-0.0939,-0.0851,-0.0743,-0.06,-0.0486,-0.0244,-0.0302,0.0008,0.0048,0.0061,0.0322,0.0324,0.034,0.0337,0.0334,0.0178,0,0,0,0,0]}]]